| time (UTC) | temp C | wind direction | speed KPH | gust KPH | rain 1hr cm | rain 24hr cm | rain mn cm | humidity % | barometer mb |
| 20260507121149 | 14 | 134 | 3.2 | 11.3 | 0.00 | 0.00 | 0.00 | 60 | 1017.3 |
| 20260507111056 | 13 | 111 | 4.8 | 14.5 | 0.00 | 0.00 | 0.00 | 66 | 1017.4 |
| 20260507104036 | 13 | 105 | 0.0 | 6.4 | 0.00 | 0.00 | 0.00 | 66 | 1017.5 |
| 20260507101149 | 13 | 96 | 1.6 | 9.7 | 0.00 | 0.00 | 0.00 | 65 | 1017.6 |
| 20260507094027 | 13 | 121 | 1.6 | 11.3 | 0.00 | 0.00 | 0.00 | 67 | 1017.7 |
| 20260507091107 | 13 | 111 | 1.6 | 11.3 | 0.00 | 0.00 | 0.00 | 70 | 1017.5 |
| 20260507084030 | 11 | 111 | 3.2 | 3.2 | 0.00 | 0.00 | 0.00 | 75 | 1017.8 |
| 20260507081044 | 11 | 111 | 6.4 | 14.5 | 0.00 | 0.00 | 0.00 | 74 | 1017.6 |
| 20260507074017 | 11 | 78 | 4.8 | 12.9 | 0.00 | 0.00 | 0.00 | 77 | 1017.6 |
| 20260507070858 | 10 | 50 | 1.6 | 6.4 | 0.00 | 0.00 | 0.00 | 84 | 1017.5 |
| 20260507063847 | 8 | 50 | 1.6 | 6.4 | 0.00 | 0.00 | 0.00 | 90 | 1017.4 |
| 20260507060933 | 7 | 50 | 0.0 | 0.0 | 0.00 | 0.00 | 0.00 | 92 | 1017.4 |
| 20260507054048 | 3 | 50 | 0.0 | 0.0 | 0.00 | 0.00 | 0.00 | 91 | 1017.4 |
| 20260507051044 | 3 | 50 | 0.0 | 0.0 | 0.00 | 0.00 | 0.00 | 90 | 1017.3 |
| 20260507043940 | 3 | 50 | 0.0 | 0.0 | 0.00 | 0.00 | 0.00 | 89 | 1016.9 |
| 20260507040831 | 5 | 50 | 0.0 | 0.0 | 0.00 | 0.00 | 0.00 | 88 | 1016.8 |
| 20260507033701 | 5 | 50 | 0.0 | 0.0 | 0.00 | 0.00 | 0.00 | 88 | 1016.8 |
| 20260507023643 | 7 | 49 | 1.6 | 6.4 | 0.00 | 0.00 | 0.00 | 87 | 1016.7 |
| 20260507013545 | 8 | 49 | 3.2 | 6.4 | 0.00 | 0.00 | 0.00 | 86 | 1016.7 |
| 20260507010503 | 8 | 50 | 0.0 | 4.8 | 0.00 | 0.00 | 0.00 | 86 | 1016.8 |
| 20260507003357 | 8 | 50 | 1.6 | 6.4 | 0.00 | 0.00 | 0.00 | 86 | 1016.6 |
| 20260507000344 | 8 | 50 | 1.6 | 6.4 | 0.00 | 0.00 | 0.00 | 86 | 1016.6 |
| 20260506233309 | 8 | 49 | 3.2 | 8.0 | 0.00 | 0.00 | 0.00 | 86 | 1016.6 |
| 20260506215956 | 9 | 51 | 8.0 | 12.9 | 0.00 | 0.00 | 0.00 | 85 | 1016.3 |
| 20260506212914 | 9 | 41 | 8.0 | 14.5 | 0.00 | 0.00 | 0.00 | 85 | 1016.2 |
| 20260506210017 | 8 | 29 | 8.0 | 14.5 | 0.00 | 0.00 | 0.00 | 86 | 1015.8 |
| 20260506195853 | 9 | 13 | 9.7 | 19.3 | 0.00 | 0.00 | 0.00 | 85 | 1015.6 |
| 20260506185523 | 10 | 11 | 11.3 | 17.7 | 0.00 | 0.00 | 0.00 | 82 | 1015.2 |
| 20260506182448 | 10 | 14 | 11.3 | 20.9 | 0.00 | 0.00 | 0.00 | 81 | 1014.8 |
| 20260506172325 | 11 | 11 | 14.5 | 24.1 | 0.00 | 0.00 | 0.00 | 77 | 1014.3 |
| 20260506165359 | 12 | 9 | 9.7 | 19.3 | 0.00 | 0.00 | 0.00 | 72 | 1014.3 |
| 20260506162421 | 12 | 0 | 9.7 | 16.1 | 0.00 | 0.00 | 0.00 | 70 | 1014.3 |
| 20260506155529 | 12 | 0 | 14.5 | 25.7 | 0.00 | 0.00 | 0.00 | 69 | 1014.3 |
| 20260506152559 | 12 | 22 | 16.1 | 25.7 | 0.00 | 0.00 | 0.00 | 65 | 1014.2 |
| 20260506145626 | 13 | 19 | 16.1 | 24.1 | 0.00 | 0.00 | 0.00 | 64 | 1014.2 |
| 20260506132449 | 14 | 11 | 12.9 | 22.5 | 0.00 | 0.00 | 0.00 | 55 | 1014.2 |